Savannah Hunter, GA

8:05 PM EST on November 24, 2017 (GMT -0500)
Hunter Army Air Field

Weather History for KSVN - September, 2013

Change the Weather History Date:

Saturday, September 14, 2013

  Actual Average Record
Temperature  
Mean Temperature 78 °F -  
Max Temperature 86 °F 83 °F 93 °F (2005)
Min Temperature 71 °F 67 °F 58 °F (2015)
Cooling Degree Days 14    
Growing Degree Days 28 (Base 50)    
Moisture  
Dew Point 72 °F    
Average Humidity 85    
Maximum Humidity 100    
Minimum Humidity 64    
Precipitation  
Precipitation 0.00 in - - ()
Sea Level Pressure  
Sea Level Pressure 29.89 in    
Wind  
Wind Speed 4 mph (NE)    
Max Wind Speed 13 mph    
Max Gust Speed 18 mph    
Visibility 10 miles    
Events Thunderstorm    
Averages and records for this station are not official NWS values.
T = Trace of Precipitation, MM = Missing Value Source: NWS Daily Summary

Daily Weather History Graph

Daily Weather History Graph

Search for Another Location

Airport or City:

Trip Planner

Search our weather history database for the weather conditions in past years. The results will help you decide how hot, cold, wet, or windy it might be!

Date:

Astronomy

Sep. 14, 2013 Rise Set
Actual Time 7:08 AM EDT 7:31 PM EDT
Civil Twilight 6:43 AM EDT 7:56 PM EDT
Nautical Twilight 6:14 AM EDT 8:24 PM EDT
Astronomical Twilight 5:45 AM EDT 8:53 PM EDT
Moon 3:58 PM EDT (9/14) 1:52 AM EDT (9/14)
Length of Visible Light 13h 12m
Length of Day
12h 23m
Waxing Gibbous, 72% of the Moon is Illuminated
Sep 14
Waxing Gibbous
Sep 19
Full
Sep 26
Last Quarter
Oct 4
New
Oct 11
First Quarter

Hourly Weather History & Observations

Time (EDT) Temp. Heat Index Dew Point Humidity Pressure Visibility Wind Dir Wind Speed Gust Speed Precip Events Conditions
12:08 AM 73.4 °F - 73.4 °F 100% 29.81 in 9.0 mi West 3.5 mph - N/A   Clear
12:23 AM 73.4 °F - 73.4 °F 100% 29.81 in 10.0 mi Calm Calm - N/A   Clear
12:33 AM 73.4 °F - 73.4 °F 100% 29.81 in 9.0 mi WSW 2.3 mph - N/A   Clear
12:58 AM 73.4 °F - 71.6 °F 94% 29.82 in 8.0 mi West 1.2 mph - N/A   Clear
1:33 AM 73.4 °F - 73.4 °F 100% 29.80 in 10.0 mi Calm Calm - N/A   Scattered Clouds
1:48 AM 73.4 °F - 73.4 °F 100% 29.80 in 9.0 mi Calm Calm - N/A   Partly Cloudy
1:53 AM 73.4 °F - 73.4 °F 100% 29.80 in 10.0 mi WNW 2.3 mph - N/A   Partly Cloudy
1:58 AM 73.6 °F - 72.9 °F 98% 29.81 in 10.0 mi WNW 3.5 mph - N/A   Clear
2:08 AM 73.4 °F - 71.6 °F 94% 29.80 in 9.0 mi West 2.3 mph - N/A   Clear
2:58 AM 72.3 °F - 71.6 °F 98% 29.80 in 8.0 mi West 3.5 mph - N/A   Clear
3:08 AM 71.6 °F - 71.6 °F 100% 29.79 in 10.0 mi West 4.6 mph - N/A   Clear
3:23 AM 71.6 °F - 71.6 °F 100% 29.78 in 10.0 mi West 3.5 mph - N/A   Clear
3:58 AM 71.6 °F - 71.1 °F 98% 29.80 in 8.0 mi NNW 1.2 mph - N/A   Clear
4:18 AM 71.6 °F - 71.6 °F 100% 29.80 in 10.0 mi NW 3.5 mph - N/A   Clear
4:58 AM 72.7 °F - 71.6 °F 96% 29.82 in 10.0 mi NNW 3.5 mph - N/A   Clear
5:58 AM 72.5 °F - 70.7 °F 94% 29.83 in 10.0 mi NNE 5.8 mph - N/A   Partly Cloudy
6:58 AM 72.0 °F - 68.0 °F 87% 29.85 in 10.0 mi NNE 5.8 mph - N/A   Clear
7:58 AM 71.1 °F - 66.2 °F 85% 29.88 in 10.0 mi North 5.8 mph - N/A   Partly Cloudy
8:58 AM 73.6 °F - 64.8 °F 74% 29.90 in 10.0 mi NNE 8.1 mph - N/A   Clear
9:58 AM 76.1 °F - 65.3 °F 69% 29.92 in 10.0 mi Variable 3.5 mph - N/A   Clear
10:58 AM 78.8 °F - 67.5 °F 68% 29.93 in 10.0 mi NE 5.8 mph - N/A   Partly Cloudy
11:58 AM 82.4 °F 86.3 °F 69.8 °F 66% 29.93 in 10.0 mi Variable 3.5 mph - N/A   Clear
12:58 PM 85.8 °F 93.0 °F 73.4 °F 66% 29.93 in 10.0 mi East 4.6 mph - N/A   Partly Cloudy
1:28 PM 84.2 °F 89.6 °F 71.6 °F 66% 29.92 in 10.0 mi NE 3.5 mph - N/A   Mostly Cloudy
1:43 PM 86.0 °F 93.4 °F 73.4 °F 66% 29.92 in 10.0 mi Variable 2.3 mph - N/A   Mostly Cloudy
1:58 PM 86.4 °F 93.4 °F 72.9 °F 64% 29.93 in 10.0 mi Variable 4.6 mph - N/A   Mostly Cloudy
2:38 PM 84.2 °F 90.9 °F 73.4 °F 70% 29.92 in 10.0 mi ENE 4.6 mph - N/A   Overcast
2:53 PM 84.2 °F 90.9 °F 73.4 °F 70% 29.91 in 10.0 mi ESE 9.2 mph - N/A   Mostly Cloudy
2:58 PM 84.7 °F 92.1 °F 74.1 °F 70% 29.93 in 10.0 mi East 8.1 mph - N/A   Mostly Cloudy
3:03 PM 84.2 °F 90.9 °F 73.4 °F 70% 29.91 in 10.0 mi East 8.1 mph - N/A   Mostly Cloudy
3:58 PM 84.2 °F 90.9 °F 73.4 °F 70% 29.91 in 10.0 mi SE 8.1 mph - N/A   Partly Cloudy
4:58 PM 86.0 °F 93.0 °F 73.0 °F 65% 29.92 in 10.0 mi East 8.1 mph - N/A   Partly Cloudy
5:58 PM 85.1 °F 92.6 °F 73.9 °F 69% 29.92 in 10.0 mi East 8.1 mph - N/A   Partly Cloudy
6:58 PM 81.7 °F 87.6 °F 74.3 °F 78% 29.94 in 10.0 mi East 12.7 mph - N/A   Partly Cloudy
7:16 PM 80.6 °F 85.4 °F 73.4 °F 79% 29.94 in 10.0 mi NNE 12.7 mph 18.4 mph N/A   Light Drizzle
7:45 PM 77.0 °F - 75.2 °F 94% 29.95 in 10.0 mi ENE 8.1 mph - N/A Thunderstorm Scattered Clouds
7:58 PM 77.5 °F - 74.8 °F 91% 29.98 in 10.0 mi ENE 6.9 mph - 0.00 in Thunderstorm Partly Cloudy
8:58 PM 77.0 °F - 74.1 °F 91% 30.00 in 10.0 mi ENE 6.9 mph - N/A   Clear
9:58 PM 76.8 °F - 73.6 °F 90% 30.01 in 10.0 mi ENE 5.8 mph - N/A   Clear
10:58 PM 77.4 °F - 73.4 °F 88% 30.02 in 10.0 mi ENE 5.8 mph - N/A   Mostly Cloudy
11:43 PM 77.0 °F - 73.4 °F 89% 30.02 in 10.0 mi NE 4.6 mph - N/A   Mostly Cloudy
11:58 PM 77.4 °F - 73.6 °F 88% 30.03 in 10.0 mi NE 5.8 mph - N/A   Overcast
11:59 PM 77.0 °F - 73.4 °F 89% 30.02 in 10.0 mi ENE 5.8 mph - N/A   Light Drizzle